Content
SEND FEEDBACK

Daily
Averages
Monthly
Summary
Russia

KUVYK, RUSSIA


Home > Europe > Russia
Elevation: 659 feet     Latitude: 51 37N     Longitude: 045 27E

WEATHER
 
SELECT A DAY
Number of Records: 182,074;   Date Range: 3/24/97 - 8/12/14
 
SHARE

PRINT THIS DATA

[ ← Previous Day ]
WEATHER ALMANAC - FEBRUARY 13, 2013
[ Next Day → ]
[ °C ]   °F
Weather ElementAverageHighLow
Temperature15.3 °F19.4 °F (2:00 pm)12.2 °F (10:00 am)
Dewpoint11.2 °F14 °F (3:00 pm)8.6 °F (11:00 pm)
Humidity84.2 %93 % (11:00 am)74 % (2:00 pm)
Barometer30.41 in30.45 in (8:00 pm)30.36 in (12:30 am)
Wind Speed9.1 mph13.4 mph (8:00 am)
Weather ElementAverage
Visibility6.2 mi
Wind DirectionENE (84 °)

Weather ElementTotal
Precipitation---
Heating Degree Days49.2 (Base 65)
Averaged from 47 records on February 13, 2013
WEATHER CONDITIONS BREAKOUT
WIND DIRECTION BREAKOUT
WEATHER BY HOUR - FEBRUARY 13, 2013
[ °C ]   °F
Local TimeTemperatureDewpointHumidityBarometerVisibilityWind DirectionWind SpeedGust SpeedPrecipitationEventsConditions
12:30 AM15.8 °F10.4 °F79 %30.36 inEast (100°)6.7 mphClear
1:00 AM14.0 °F10.4 °F86 %30.36 inEast (90°)8.9 mphClear
1:30 AM14.0 °F10.4 °F86 %30.36 inEast (90°)8.9 mphClear
2:00 AM14.0 °F10.4 °F86 %30.36 inEast (90°)8.9 mphClear
2:30 AM14.0 °F10.4 °F86 %30.36 inEast (90°)8.9 mphClear
3:00 AM14.0 °F10.4 °F86 %30.39 inEast (100°)6.7 mphClear
3:30 AM14.0 °F10.4 °F86 %30.39 inEast (100°)6.7 mphClear
4:00 AM14.0 °F10.4 °F86 %30.39 inEast (100°)11.2 mphClear
4:30 AM14.0 °F10.4 °F86 %30.39 inEast (100°)11.2 mphClear
5:00 AM14.0 °F10.4 °F86 %30.39 inEast (100°)8.9 mphClear
5:30 AM14.0 °F10.4 °F86 %30.39 inVariable4.5 mphClear
6:00 AM14.0 °F10.4 °F86 %30.39 inVariable4.5 mphClear
6:30 AM14.0 °F10.4 °F86 %30.39 inEast (100°)6.7 mphClear
7:00 AM14.0 °F10.4 °F86 %30.39 inEast (100°)6.7 mphClear
7:30 AM14.0 °F10.4 °F86 %30.39 inEast (100°)8.9 mphClear
8:00 AM14.0 °F10.4 °F86 %30.39 inEast (100°)13.4 mphClear
8:30 AM14.0 °F10.4 °F86 %30.39 inEast (90°)8.9 mphClear
9:00 AM14.0 °F10.4 °F86 %30.42 in6.2 miEast (80°)8.9 mphMostly Cloudy
9:30 AM14.0 °F10.4 °F86 %30.42 in6.2 miEast (90°)11.2 mphMostly Cloudy
10:00 AM12.2 °F10.4 °F92 %30.42 in6.2 miEast (90°)11.2 mphMostly Cloudy
10:30 AM12.2 °F10.4 °F92 %30.42 in6.2 miEast (90°)11.2 mphMostly Cloudy
11:00 AM14.0 °F12.2 °F93 %30.42 in6.2 miEast (80°)8.9 mphMostly Cloudy
11:30 AM14.0 °F12.2 °F93 %30.42 in6.2 miEast (80°)8.9 mphMostly Cloudy
12:00 PM15.8 °F12.2 °F86 %30.42 in6.2 miEast (90°)6.7 mphMostly Cloudy
12:30 PM15.8 °F12.2 °F86 %30.42 in6.2 miENE (70°)6.7 mphMostly Cloudy
1:00 PM17.6 °F12.2 °F79 %30.42 in6.2 miEast (80°)6.7 mphMostly Cloudy
1:30 PM17.6 °F12.2 °F79 %30.42 in6.2 miENE (70°)6.7 mphMostly Cloudy
2:00 PM19.4 °F12.2 °F74 %30.42 in6.2 miENE (60°)8.9 mphMostly Cloudy
2:30 PM19.4 °F12.2 °F74 %30.42 in6.2 miENE (70°)6.7 mphMostly Cloudy
3:00 PM19.4 °F14.0 °F80 %30.42 in6.2 miEast (80°)8.9 mphMostly Cloudy
3:30 PM19.4 °F14.0 °F80 %30.42 in6.2 miENE (70°)8.9 mphMostly Cloudy
4:00 PM19.4 °F14.0 °F80 %30.42 inENE (70°)8.9 mphClear
4:30 PM19.4 °F14.0 °F80 %30.42 inENE (70°)8.9 mphClear
5:00 PM19.4 °F14.0 °F80 %30.42 inENE (60°)6.7 mphClear
5:30 PM19.4 °F14.0 °F80 %30.42 inEast (80°)6.7 mphClear
6:00 PM17.6 °F14.0 °F86 %30.42 inEast (80°)6.7 mphClear
6:30 PM17.6 °F14.0 °F86 %30.42 inEast (90°)11.2 mphClear
7:00 PM15.8 °F10.4 °F79 %30.42 inEast (90°)8.9 mphClear
7:30 PM15.8 °F10.4 °F79 %30.42 inEast (90°)13.4 mphClear
8:00 PM14.0 °F10.4 °F86 %30.45 inESE (110°)11.2 mphClear
8:30 PM14.0 °F10.4 °F86 %30.45 inEast (100°)11.2 mphClear
9:00 PM14.0 °F10.4 °F86 %30.45 inEast (100°)8.9 mphClear
9:30 PM14.0 °F10.4 °F86 %30.45 inEast (90°)13.4 mphClear
10:00 PM14.0 °F10.4 °F86 %30.45 inEast (90°)13.4 mphClear
10:30 PM14.0 °F10.4 °F86 %30.45 inEast (90°)13.4 mphClear
11:00 PM14.0 °F8.6 °F79 %30.45 inEast (90°)13.4 mphClear
11:30 PM14.0 °F8.6 °F79 %30.45 inEast (100°)11.2 mphClear
Hourly data recorded from UWSS, located miles away from Kuvyk, Russia







STORIES FROM OUR PARTNERS